Location: Ambatotampy
(18.8181°S, 47.6186°E)
Time: 18:09:09
(UTC+00:00)

SJ-12 - Pass Details

Date: 21 January 2021
Orbit: 568 x 585 km, 97.7° (Epoch: 07 March)

Event Time Altitude Azimuth Distance (km) Brightness Sun altitude
Rises 01:37:44 0° 359° (N) 2,784 7.1 -11.9°
Reaches altitude 10° 01:39:56 10° 352° (N) 1,889 6.2 -11.4°
Maximum altitude 01:43:51 44° 280° (W) 813 4.2 -10.6°
Drops below altitude 10° 01:47:47 10° 207° (SSW) 1,901 6.5 -9.7°
Sets 01:50:02 0° 201° (SSW) 2,803 7.5 -9.3°
